Flag for Taiwan Weather past 2 weeks in Taichung, Taiwan

Now
72 °F

Passing clouds.


Feels Like: 76 °F
Forecast: 65 / 82 °F
Wind: 2 mph from North

Location: Chiang Kai Shek

Current Time: Mar 29, 2015 at 6:51:57 PM

Latest Report: Mar 29, 2015 at 6:30 PM


Visibility: N/A

Pressure: 29.98 "Hg

Humidity: 61%

Dew point: 57 °F

Location of TaichungLocation

Historic Weather in Taichung — Graph

°F

Taichung temperature yesterday

Maximum temperature yesterday: 70 °F (at 1:30 PM)
Minimum temperature yesterday: 55 °F (at 5:30 AM)
Average temperature yesterday: 62 °F

Past Weeks' High & Low Weather Summary

 TemperatureHumidityPressure
High82 °F (Mar 18, 11:00 AM)100% (Mar 14, 10:00 PM)30.39 "Hg (Mar 14, 10:00 PM)
Low55 °F (Mar 28, 5:30 AM)48% (Mar 29, 2:00 PM)29.80 "Hg (Mar 18, 2:00 PM)
Average67 °F86%30.08 "Hg
* Reported Mar 14 5:00 PM — Mar 29 5:30 PM, Taichung, Weather by CustomWeather, © 2015

Note: Actual official high and low records may vary slightly from our data, if they occured in-between our weather recording intervals... More about our weather records

Advertising

Taichung weather history for previous 24 hours

 ConditionsComfort  
Time TempWeatherWind HumidityBarometerVisibility
5:30 PM
Sun, Mar 29
77 °FPassing clouds.3 mph54%29.95 "HgN/A
5:00 PM79 °FPassing clouds.6 mph51%29.95 "HgN/A
4:30 PM79 °FPassing clouds.6 mph51%29.95 "HgN/A
4:00 PM79 °FPassing clouds.12 mph48%29.95 "HgN/A
3:30 PM81 °FPassing clouds.10 mph51%29.95 "HgN/A
3:00 PM79 °FPassing clouds.12 mph51%29.95 "HgN/A
2:30 PM81 °FPassing clouds.12 mph48%29.95 "HgN/A
2:00 PM81 °FPassing clouds.10 mph48%29.98 "HgN/A
1:30 PM81 °FPassing clouds.12 mph51%29.98 "HgN/A
1:00 PM79 °FPassing clouds.13 mph54%30.01 "HgN/A
12:30 PM79 °FScattered clouds.10 mph54%30.01 "HgN/A
12:00 PM77 °FPassing clouds.10 mph57%30.01 "HgN/A
11:30 AM77 °FPassing clouds.9 mph54%30.04 "HgN/A
11:00 AM77 °FPassing clouds.8 mph51%30.07 "HgN/A
10:30 AM73 °FSunny.10 mph53%30.07 "Hg10 mi
10:00 AM73 °FPassing clouds.9 mph57%30.07 "HgN/A
9:30 AM72 °FScattered clouds.8 mph53%30.07 "HgN/A
9:00 AM72 °FPassing clouds.7 mph57%30.07 "HgN/A
8:30 AM68 °FPassing clouds.8 mph64%30.07 "HgN/A
8:00 AM66 °FPassing clouds.2 mph73%30.07 "HgN/A
7:30 AM63 °FPassing clouds.5 mph88%30.07 "HgN/A
7:00 AM59 °FPassing clouds.6 mph94%30.07 "HgN/A
6:30 AM57 °FPassing clouds.3 mph94%30.07 "HgN/A
6:00 AM55 °FPassing clouds.2 mph94%30.07 "HgN/A
5:30 AM55 °FPassing clouds.3 mph94%30.04 "HgN/A
5:00 AM55 °FPassing clouds.3 mph94%30.04 "HgN/A
4:30 AM55 °FPassing clouds.3 mph94%30.01 "HgN/A
4:00 AM55 °FPassing clouds.3 mph94%30.01 "HgN/A
3:30 AM55 °FPassing clouds.1 mph94%30.01 "HgN/A
3:00 AM55 °FPassing clouds.No wind94%30.01 "HgN/A
2:00 AM59 °FPassing clouds.3 mph88%30.01 "HgN/A
1:30 AM57 °FPassing clouds.5 mph88%30.01 "HgN/A
1:00 AM55 °FPassing clouds.5 mph94%30.01 "HgN/A
12:30 AM57 °FPassing clouds.2 mph88%30.04 "HgN/A
12:00 AM55 °FPassing clouds.1 mph88%30.04 "HgN/A
11:30 PM
Sat, Mar 28
57 °FPassing clouds.No wind88%30.04 "HgN/A
11:00 PM57 °FPassing clouds.1 mph88%30.04 "HgN/A
10:30 PM57 °FPassing clouds.3 mph94%30.04 "HgN/A
10:00 PM57 °FPassing clouds.2 mph88%30.07 "HgN/A
9:30 PM57 °FPassing clouds.3 mph88%30.07 "HgN/A
9:00 PM59 °FPassing clouds.5 mph82%30.07 "HgN/A
8:30 PM59 °FPassing clouds.5 mph82%30.07 "HgN/A
8:00 PM61 °FPassing clouds.5 mph77%30.07 "HgN/A
7:30 PM61 °FPassing clouds.6 mph72%30.07 "HgN/A
7:00 PM61 °FPassing clouds.5 mph72%30.04 "HgN/A
6:30 PM61 °FPassing clouds.8 mph72%30.04 "HgN/A
6:00 PM64 °FScattered clouds.13 mph64%30.04 "HgN/A
Weather by CustomWeather, © 2015

See weather overviewHow to use our weather pages